Miscellaneous Local Product
Issued by NWS North Platte, NE

Home | Current Version | Previous Version | Text Only | Print | Product List | Glossary On
Versions: 1 2 3 4 5 6 7 8 9 10 11 12 13 14 15 16 17 18 19 20 21 22 23 24 25 26 27 28 29 30 31 32 33 34 35 36 37 38 39 40 41 42 43 44 45 46 47 48 49 50
000
AXUS43 KLBF 010810
MISLBF


WESTERN AND NORTH CENTRAL NEBRASKA HOURLY WEATHER ROUNDUP
NATIONAL WEATHER SERVICE NORTH PLATTE NE
300 AM CDT TUE SEP 01 2015

NOTE: "FAIR" INDICATES FEW OR NO CLOUDS BELOW 12,000 FEET WITH NO
SIGNIFICANT WEATHER AND/OR OBSTRUCTIONS TO VISIBILITY.

NOTE: STATIONS NOT REPORTING VARIABLES SUCH AS SKY/WEATHER OR
PRESSURE ARE PROVIDED BY THE NEBRASKA DEPARTMENT OF
ROADS...RAWS...AND APRS NETWORKS...AND ARE NOT UNDER
NATIONAL WEATHER SERVICE QUALITY CONTROL.

...OBSERVATIONS IN AND NEAR THE EASTERN PANHANDLE OF NEBRASKA...

CITY           SKY/WX    TMP DP  RH WIND       PRES   REMARKS
PINE RIDGE     PTCLDY    62  51  67 SW5       29.94S
CHADRON        CLEAR     62  49  62 S9        29.93S
ALLIANCE       MOCLDY    60  52  74 W6        29.99F
SIDNEY         MOCLDY    63  54  72 SW5       30.04S
CRESCENT LAKE    N/A     66  54  66 SE3         N/A
BIG SPRINGS      N/A     66  61  84 SW3         N/A
$$

...OBSERVATIONS IN NORTH CENTRAL NEBRASKA...

CITY           SKY/WX    TMP DP  RH WIND       PRES   REMARKS
VALENTINE      CLOUDY    61  58  90 NW5       29.94F
THEDFORD       CLOUDY    68  65  90 NW5       29.93F
AINSWORTH      CLOUDY    65  64  94 CALM      29.92F
O`NEILL        CLOUDY    71  69  95 CALM      29.90F
ORD            CLOUDY    70  66  87 SE7       29.88F
BROKEN BOW     CLOUDY    71  66  84 CALM      29.91F
SPRINGVIEW       N/A     65  62  91 CALM        N/A
SARGENT          N/A     70  66  88 SE3         N/A
CHAMBERS         N/A     69  66  91 CALM        N/A
EWING            N/A     69  64  83 CALM        N/A
$$

...OBSERVATIONS IN SOUTHWEST NEBRASKA AND FAR NORTHEAST COLORADO...

CITY           SKY/WX    TMP DP  RH WIND       PRES   REMARKS
WRAY           CLOUDY    64  60  87 SW5       29.99S
HOLYOKE        FAIR      66  61  82 W6        29.97F
IMPERIAL       LGT RAIN  67  62  84 E7        29.97F
OGALLALA       CLOUDY    66  62  86 CALM      29.95F
NORTH PLATTE   CLOUDY    68  60  75 W5        29.94S
MCCOOK         CLOUDY    75  61  61 W15       29.91F
LEXINGTON      CLOUDY    70  59  69 S6        29.91F
PAXTON           N/A     67  63  86 CALM        N/A
BRADY            N/A     69  63  81 CALM        N/A
CALLAWAY         N/A     67  64  91 CALM        N/A
$$

...OBSERVATIONS IN CENTRAL LINCOLN COUNTY AREA...

CITY           SKY/WX    TMP DP  RH WIND       PRES   REMARKS
N.P. AIRPORT   CLOUDY    68  60  75 W5        29.94S
N.P. DOWNTOWN    N/A     71  63  76 CALM        N/A
N.P. SOUTHEAST   N/A     72  62  71 CALM        N/A
N.P. HILLCREST   N/A     69  63  81 W5          N/A
$$

...SOME OBSERVATIONS FROM AROUND THE REGION...

CITY           SKY/WX    TMP DP  RH WIND       PRES   REMARKS
DENVER         MOCLDY    60  55  83 SW12      30.11F
LARAMIE        CLEAR     47  42  83 SE10      30.21F
CHEYENNE       CLEAR     55  46  71 CALM      30.14F
SCOTTSBLUFF    CLEAR     59  55  87 N3        30.00F
RAPID CITY     CLEAR     57  55  93 SE5       29.90F
PIERRE         MOCLDY    60  59  96 NE3       29.89S
WINNER         LGT RAIN  66  61  84 NW3       29.92F
SIOUX FALLS    PTCLDY    70  67  90 S3        29.90F
OMAHA          CLEAR     72  69  90 SE9       29.93S
GRAND ISLAND   PTCLDY    68  64  87 S9        29.91F
KANSAS CITY    CLEAR     74  69  85 S10       29.99S
WICHITA        PTCLDY    71  64  78 S7        29.99S
HAYS           CLEAR     75  54  46 S14       29.96S
LIBERAL        PTCLDY    68  52  56 S13       30.00F
GOODLAND       CLOUDY    64  62  93 NW5       29.98S
$$



USA.gov is the U.S. government's official web portal to all federal, state and local government web resources and services.